Location: *
(37.5724°S, 58.0067°E)
Time: 09:44:37
(UTC+00:00)

CZ-3A R/B - Pass Details

Date: 23 January 2021
Orbit: 1317 x 30229 km, 55.5° (Epoch: 26 February)

Event Time Altitude Azimuth Distance (km) Brightness Sun altitude
Rises 17:13:42 0° 356° (N) 35,068 10.5 -18.3°
Reaches altitude 10° 18:31:23 10° 351° (N) 28,721 10.0 -27.7°
Maximum altitude 20:31:08 69° 51° (NE) 4,894 6.2 -33.1°
Drops below altitude 10° 20:44:19 10° 130° (SE) 4,768 7.0 -32.9°
Sets 20:46:26 0° 133° (SE) 5,332 7.5 -32.9°
